SCOUT A DEB, 3214

Orbit data source: Space-Track

SCOUT A DEB, 3214 is space debris in LEO originally from a launch on Sat, 02 Mar 1968 UTC launched from the Air Force Western Test Range (AFWTR). Debris objects in space refer to the collection of defunct objects orbiting the Earth. Examples of debris include non-operational satellites, rocket bodies, and fragments generated from explosions, collisions, or faulty payload assembly.

Loading next visibility...
Identifier
3214, 1968-012D
Orbit
LEO
Country
Flag of USUS
Related business
Manufacturer
Unknown
Mission
Spacecraft
Bus & Motor
Unknown
Mass
Unknown
Launch date (UTC)
1968-03-02 (58 years ago)
Launch vehicle
Unknown
Launch site
Air Force Western Test Range (AFWTR)
Object type
Payload
Rocket body
Debris
Shape & HBR
Unknown shape, 0.1 m
Radar Cross Section
Medium (>0.1 m² and <1 m²)

Expand to show TLE details & history
Last TLE update: 3 days ago

TLE from 3 days ago
0 SCOUT A DEB
1 03214U 68012D   26147.83877918  .00000121  00000-0  22381-3 0  9991
2 03214  89.8149 103.8900 0184392 315.1116 102.0126 13.29280980581836
Epoch: 2026-05-27T20:07Z
TLE epoch observation values (Epoch: 2026-05-27T20:07:50.521Z)
Latitude
59.2693°
Longitude
-83.15283°
Altitude
1,190.926 km
Speed
7.249 km/s
True Right ascension
06h 56m 47s
True Declination
59° 07' 36"
Sunlit
Object was in daylight at epoch
Visualization orbit readout
Latitude
Unknown
Longitude
Unknown
Altitude
Unknown
Speed
Unknown
Apparent Right ascension
Unknown
Apparent Declination
Unknown
Sunlit
N/A
Visualization observer readout
Local Sidereal Time
07:21:17
Azimuth
Unknown
Elevation
Unknown
Doppler factor
Unknown
Orbital elements
Apogee altitude
1,285.305 km
Perigee altitude
1,007.806 km
Semi-major axis
7,524.692 km
Eccentricity
0.01844
Inclination
89.8149°
RAAN
103.89°
Arg. of periapsis
315.1116°
True anomaly
104.069°
Mean anomaly
102.0126°
Eccentric anomaly
103.04184°
Mean motion
3.32514 °/min
Orbital period
108.27 mins
BSTAR
0.00022381
Loading maneuver chart data...
Computing Atmospheric mass density...
Loading historical data...
Loading historical data...
Loading historical data...
Loading historical data...
Loading historical data...
Loading historical data...
Loading historical data...

Documentation

Showing up to 5 results
|